Year,Month,Day,Hour,Minute,Value (Times are PST for windgust in km/hr)
2011,07,07,00,00,6.40
2011,07,07,00,01,9.60
2011,07,07,00,02,8.10
2011,07,07,00,03,6.40
2011,07,07,00,04,3.20
2011,07,07,00,05,4.80
2011,07,07,00,06,4.80
2011,07,07,00,07,4.80
2011,07,07,00,08,4.80
2011,07,07,00,09,6.40
2011,07,07,00,10,8.10
2011,07,07,00,11,6.40
2011,07,07,00,12,4.80
2011,07,07,00,13,4.80
2011,07,07,00,14,6.40
2011,07,07,00,15,4.80
2011,07,07,00,16,9.60
2011,07,07,00,17,11.30
2011,07,07,00,18,6.40
2011,07,07,00,19,4.80
2011,07,07,00,20,4.80
2011,07,07,00,21,3.20
2011,07,07,00,22,3.20
2011,07,07,00,23,6.40
2011,07,07,00,24,3.20
2011,07,07,00,25,1.60
2011,07,07,00,26,1.60
2011,07,07,00,27,6.40
2011,07,07,00,28,8.10
2011,07,07,00,29,6.40
2011,07,07,00,30,8.10
2011,07,07,00,31,8.10
2011,07,07,00,32,6.40
2011,07,07,00,33,6.40
2011,07,07,00,34,8.10
2011,07,07,00,35,12.90
2011,07,07,00,36,8.10
2011,07,07,00,37,11.30
2011,07,07,00,38,4.80
2011,07,07,00,39,11.30
2011,07,07,00,40,14.50
2011,07,07,00,41,6.40
2011,07,07,00,42,11.30
2011,07,07,00,43,9.60
2011,07,07,00,44,8.10
2011,07,07,00,45,9.60
2011,07,07,00,46,9.60
2011,07,07,00,47,9.60
2011,07,07,00,48,14.50
2011,07,07,00,49,11.30
2011,07,07,00,50,9.60
2011,07,07,00,51,9.60
2011,07,07,00,52,8.10
2011,07,07,00,53,8.10
2011,07,07,00,54,8.10
2011,07,07,00,55,8.10
2011,07,07,00,56,6.40
2011,07,07,00,57,4.80
2011,07,07,00,58,4.80
2011,07,07,00,59,4.80
2011,07,07,01,00,4.80
2011,07,07,01,01,8.10
2011,07,07,01,02,4.80
2011,07,07,01,03,11.30
2011,07,07,01,04,8.10
2011,07,07,01,05,14.50
2011,07,07,01,06,12.90
2011,07,07,01,07,8.10
2011,07,07,01,08,9.60
2011,07,07,01,09,11.30
2011,07,07,01,10,11.30
2011,07,07,01,11,11.30
2011,07,07,01,12,8.10
2011,07,07,01,13,9.60
2011,07,07,01,14,9.60
2011,07,07,01,15,9.60
2011,07,07,01,16,14.50
2011,07,07,01,17,8.10
2011,07,07,01,18,16.10
2011,07,07,01,19,14.50
2011,07,07,01,20,17.70
2011,07,07,01,21,9.60
2011,07,07,01,22,11.30
2011,07,07,01,23,16.10
2011,07,07,01,24,11.30
2011,07,07,01,25,16.10
2011,07,07,01,26,9.60
2011,07,07,01,27,11.30
2011,07,07,01,28,11.30
2011,07,07,01,29,12.90
2011,07,07,01,30,14.50
2011,07,07,01,31,12.90
2011,07,07,01,32,14.50
2011,07,07,01,33,9.60
2011,07,07,01,34,9.60
2011,07,07,01,35,19.30
2011,07,07,01,36,19.30
2011,07,07,01,37,24.20
2011,07,07,01,38,16.10
2011,07,07,01,39,14.50
2011,07,07,01,40,14.50
2011,07,07,01,41,14.50
2011,07,07,01,42,14.50
2011,07,07,01,43,11.30
2011,07,07,01,44,20.90
2011,07,07,01,45,16.10
2011,07,07,01,46,9.60
2011,07,07,01,47,17.70
2011,07,07,01,48,19.30
2011,07,07,01,49,20.90
2011,07,07,01,50,14.50
2011,07,07,01,51,16.10
2011,07,07,01,52,19.30
2011,07,07,01,53,17.70
2011,07,07,01,54,16.10
2011,07,07,01,55,14.50
2011,07,07,01,56,19.30
2011,07,07,01,57,17.70
2011,07,07,01,58,20.90
2011,07,07,01,59,22.50
2011,07,07,02,00,19.30
2011,07,07,02,01,17.70
2011,07,07,02,02,19.30
2011,07,07,02,03,22.50
2011,07,07,02,04,17.70
2011,07,07,02,05,16.10
2011,07,07,02,06,14.50
2011,07,07,02,07,17.70
2011,07,07,02,08,16.10
2011,07,07,02,09,17.70
2011,07,07,02,10,12.90
2011,07,07,02,11,20.90
2011,07,07,02,12,14.50
2011,07,07,02,13,17.70
2011,07,07,02,14,11.30
2011,07,07,02,15,17.70
2011,07,07,02,16,17.70
2011,07,07,02,17,16.10
2011,07,07,02,18,17.70
2011,07,07,02,19,16.10
2011,07,07,02,20,8.10
2011,07,07,02,21,11.30
2011,07,07,02,22,9.60
2011,07,07,02,23,9.60
2011,07,07,02,24,9.60
2011,07,07,02,25,16.10
2011,07,07,02,26,8.10
2011,07,07,02,27,9.60
2011,07,07,02,28,19.30
2011,07,07,02,29,19.30
2011,07,07,02,30,12.90
2011,07,07,02,31,17.70
2011,07,07,02,32,17.70
2011,07,07,02,33,14.50
2011,07,07,02,34,20.90
2011,07,07,02,35,19.30
2011,07,07,02,36,14.50
2011,07,07,02,37,9.60
2011,07,07,02,38,8.10
2011,07,07,02,39,9.60
2011,07,07,02,40,11.30
2011,07,07,02,41,11.30
2011,07,07,02,42,17.70
2011,07,07,02,43,17.70
2011,07,07,02,44,17.70
2011,07,07,02,45,9.60
2011,07,07,02,46,14.50
2011,07,07,02,47,19.30
2011,07,07,02,48,11.30
2011,07,07,02,49,14.50
2011,07,07,02,50,22.50
2011,07,07,02,51,9.60
2011,07,07,02,52,9.60
2011,07,07,02,53,8.10
2011,07,07,02,54,17.70
2011,07,07,02,55,20.90
2011,07,07,02,56,12.90
2011,07,07,02,57,8.10
2011,07,07,02,58,9.60
2011,07,07,02,59,14.50
2011,07,07,03,00,11.30
2011,07,07,03,01,11.30
2011,07,07,03,02,6.40
2011,07,07,03,03,9.60
2011,07,07,03,04,14.50
2011,07,07,03,05,11.30
2011,07,07,03,06,6.40
2011,07,07,03,07,9.60
2011,07,07,03,08,9.60
2011,07,07,03,09,14.50
2011,07,07,03,10,9.60
2011,07,07,03,11,19.30
2011,07,07,03,12,12.90
2011,07,07,03,13,20.90
2011,07,07,03,14,14.50
2011,07,07,03,15,24.20
2011,07,07,03,16,19.30
2011,07,07,03,17,20.90
2011,07,07,03,18,20.90
2011,07,07,03,19,16.10
2011,07,07,03,20,17.70
2011,07,07,03,21,14.50
2011,07,07,03,22,19.30
2011,07,07,03,23,16.10
2011,07,07,03,24,11.30
2011,07,07,03,25,22.50
2011,07,07,03,26,27.40
2011,07,07,03,27,19.30
2011,07,07,03,28,22.50
2011,07,07,03,29,20.90
2011,07,07,03,30,20.90
2011,07,07,03,31,24.20
2011,07,07,03,32,19.30
2011,07,07,03,33,19.30
2011,07,07,03,34,16.10
2011,07,07,03,35,19.30
2011,07,07,03,36,19.30
2011,07,07,03,37,16.10
2011,07,07,03,38,22.50
2011,07,07,03,39,19.30
2011,07,07,03,40,19.30
2011,07,07,03,41,20.90
2011,07,07,03,42,22.50
2011,07,07,03,43,20.90
2011,07,07,03,44,17.70
2011,07,07,03,45,16.10
2011,07,07,03,46,22.50
2011,07,07,03,47,20.90
2011,07,07,03,48,17.70
2011,07,07,03,49,19.30
2011,07,07,03,50,19.30
2011,07,07,03,51,16.10
2011,07,07,03,52,20.90
2011,07,07,03,53,24.20
2011,07,07,03,54,17.70
2011,07,07,03,55,20.90
2011,07,07,03,56,20.90
2011,07,07,03,57,20.90
2011,07,07,03,58,22.50
2011,07,07,03,59,22.50
2011,07,07,04,00,17.70
2011,07,07,04,01,19.30
2011,07,07,04,02,20.90
2011,07,07,04,03,25.70
2011,07,07,04,04,20.90
2011,07,07,04,05,22.50
2011,07,07,04,06,16.10
2011,07,07,04,07,20.90
2011,07,07,04,08,19.30
2011,07,07,04,09,19.30
2011,07,07,04,10,25.70
2011,07,07,04,11,22.50
2011,07,07,04,12,22.50
2011,07,07,04,13,17.70
2011,07,07,04,14,24.20
2011,07,07,04,15,25.70
2011,07,07,04,16,30.60
2011,07,07,04,17,16.10
2011,07,07,04,18,22.50
2011,07,07,04,19,19.30
2011,07,07,04,20,14.50
2011,07,07,04,21,14.50
2011,07,07,04,22,20.90
2011,07,07,04,23,17.70
2011,07,07,04,24,20.90
2011,07,07,04,25,24.20
2011,07,07,04,26,30.60
2011,07,07,04,27,22.50
2011,07,07,04,28,19.30
2011,07,07,04,29,20.90
2011,07,07,04,30,25.70
2011,07,07,04,31,20.90
2011,07,07,04,32,22.50
2011,07,07,04,33,24.20
2011,07,07,04,34,20.90
2011,07,07,04,35,24.20
2011,07,07,04,36,24.20
2011,07,07,04,37,20.90
2011,07,07,04,38,22.50
2011,07,07,04,39,20.90
2011,07,07,04,40,22.50
2011,07,07,04,41,22.50
2011,07,07,04,42,17.70
2011,07,07,04,43,20.90
2011,07,07,04,44,14.50
2011,07,07,04,45,16.10
2011,07,07,04,46,20.90
2011,07,07,04,47,17.70
2011,07,07,04,48,22.50
2011,07,07,04,49,19.30
2011,07,07,04,50,16.10
2011,07,07,04,51,17.70
2011,07,07,04,52,27.40
2011,07,07,04,53,24.20
2011,07,07,04,54,29.00
2011,07,07,04,55,27.40
2011,07,07,04,56,27.40
2011,07,07,04,57,30.60
2011,07,07,04,58,30.60
2011,07,07,04,59,24.20
2011,07,07,05,00,27.40
2011,07,07,05,01,19.30
2011,07,07,05,02,20.90
2011,07,07,05,03,22.50
2011,07,07,05,04,19.30
2011,07,07,05,05,27.40
2011,07,07,05,06,33.80
2011,07,07,05,07,29.00
2011,07,07,05,08,25.70
2011,07,07,05,09,24.20
2011,07,07,05,10,27.40
2011,07,07,05,11,25.70
2011,07,07,05,12,25.70
2011,07,07,05,13,19.30
2011,07,07,05,14,25.70
2011,07,07,05,15,25.70
2011,07,07,05,16,25.70
2011,07,07,05,17,30.60
2011,07,07,05,18,17.70
2011,07,07,05,19,20.90
2011,07,07,05,20,27.40
2011,07,07,05,21,17.70
2011,07,07,05,22,20.90
2011,07,07,05,23,19.30
2011,07,07,05,24,19.30
2011,07,07,05,25,25.70
2011,07,07,05,26,22.50
2011,07,07,05,27,24.20
2011,07,07,05,28,20.90
2011,07,07,05,29,20.90
2011,07,07,05,30,20.90
2011,07,07,05,31,17.70
2011,07,07,05,32,19.30
2011,07,07,05,33,27.40
2011,07,07,05,34,16.10
2011,07,07,05,35,20.90
2011,07,07,05,36,22.50
2011,07,07,05,37,20.90
2011,07,07,05,38,24.20
2011,07,07,05,39,24.20
2011,07,07,05,40,24.20
2011,07,07,05,41,20.90
2011,07,07,05,42,25.70
2011,07,07,05,43,22.50
2011,07,07,05,44,25.70
2011,07,07,05,45,22.50
2011,07,07,05,46,27.40
2011,07,07,05,47,24.20
2011,07,07,05,48,25.70
2011,07,07,05,49,20.90
2011,07,07,05,50,19.30
2011,07,07,05,51,16.10
2011,07,07,05,52,22.50
2011,07,07,05,53,24.20
2011,07,07,05,54,19.30
2011,07,07,05,55,24.20
2011,07,07,05,56,22.50
2011,07,07,05,57,22.50
2011,07,07,05,58,20.90
2011,07,07,05,59,22.50
2011,07,07,06,00,20.90
2011,07,07,06,01,24.20
2011,07,07,06,02,20.90
2011,07,07,06,03,24.20
2011,07,07,06,04,20.90
2011,07,07,06,05,25.70
2011,07,07,06,06,24.20
2011,07,07,06,07,22.50
2011,07,07,06,08,29.00
2011,07,07,06,09,22.50
2011,07,07,06,10,27.40
2011,07,07,06,11,32.20
2011,07,07,06,12,17.70
2011,07,07,06,13,16.10
2011,07,07,06,14,19.30
2011,07,07,06,15,19.30
2011,07,07,06,16,16.10
2011,07,07,06,17,25.70
2011,07,07,06,18,24.20
2011,07,07,06,19,24.20
2011,07,07,06,20,24.20
2011,07,07,06,21,32.20
2011,07,07,06,22,24.20
2011,07,07,06,23,20.90
2011,07,07,06,24,17.70
2011,07,07,06,25,32.20
2011,07,07,06,26,35.40
2011,07,07,06,27,19.30
2011,07,07,06,28,33.80
2011,07,07,06,29,30.60
2011,07,07,06,30,29.00
2011,07,07,06,31,22.50
2011,07,07,06,32,24.20
2011,07,07,06,33,20.90
2011,07,07,06,34,14.50
2011,07,07,06,35,22.50
2011,07,07,06,36,17.70
2011,07,07,06,37,17.70
2011,07,07,06,38,20.90
2011,07,07,06,39,22.50
2011,07,07,06,40,24.20
2011,07,07,06,41,24.20
2011,07,07,06,42,25.70
2011,07,07,06,43,30.60
2011,07,07,06,44,22.50
2011,07,07,06,45,22.50
2011,07,07,06,46,30.60
2011,07,07,06,47,33.80
2011,07,07,06,48,24.20
2011,07,07,06,49,32.20
2011,07,07,06,50,27.40
2011,07,07,06,51,27.40
2011,07,07,06,52,25.70
2011,07,07,06,53,29.00
2011,07,07,06,54,24.20
2011,07,07,06,55,25.70
2011,07,07,06,56,29.00
2011,07,07,06,57,24.20
2011,07,07,06,58,27.40
2011,07,07,06,59,25.70
2011,07,07,07,00,24.20
2011,07,07,07,01,17.70
2011,07,07,07,02,27.40
2011,07,07,07,03,22.50
2011,07,07,07,04,24.20
2011,07,07,07,05,29.00
2011,07,07,07,06,30.60
2011,07,07,07,07,16.10
2011,07,07,07,08,20.90
2011,07,07,07,09,17.70
2011,07,07,07,10,25.70
2011,07,07,07,11,25.70
2011,07,07,07,12,25.70
2011,07,07,07,13,20.90
2011,07,07,07,14,24.20
2011,07,07,07,15,20.90
2011,07,07,07,16,19.30
2011,07,07,07,17,22.50
2011,07,07,07,18,19.30
2011,07,07,07,19,27.40
2011,07,07,07,20,19.30
2011,07,07,07,21,22.50
2011,07,07,07,22,22.50
2011,07,07,07,23,22.50
2011,07,07,07,24,19.30
2011,07,07,07,25,22.50
2011,07,07,07,26,22.50
2011,07,07,07,27,16.10
2011,07,07,07,28,27.40
2011,07,07,07,29,29.00
2011,07,07,07,30,22.50
2011,07,07,07,31,27.40
2011,07,07,07,32,27.40
2011,07,07,07,33,19.30
2011,07,07,07,34,20.90
2011,07,07,07,35,22.50
2011,07,07,07,36,20.90
2011,07,07,07,37,30.60
2011,07,07,07,38,25.70
2011,07,07,07,39,32.20
2011,07,07,07,40,27.40
2011,07,07,07,41,25.70
2011,07,07,07,42,30.60
2011,07,07,07,43,22.50
2011,07,07,07,44,30.60
2011,07,07,07,45,30.60
2011,07,07,07,46,25.70
2011,07,07,07,47,22.50
2011,07,07,07,48,32.20
2011,07,07,07,49,29.00
2011,07,07,07,50,29.00
2011,07,07,07,51,32.20
2011,07,07,07,52,30.60
2011,07,07,07,53,27.40
2011,07,07,07,54,27.40
2011,07,07,07,55,29.00
2011,07,07,07,56,22.50
2011,07,07,07,57,16.10
2011,07,07,07,58,25.70
2011,07,07,07,59,27.40
2011,07,07,08,00,19.30
2011,07,07,08,01,22.50
2011,07,07,08,02,22.50
2011,07,07,08,03,24.20
2011,07,07,08,04,29.00
2011,07,07,08,05,25.70
2011,07,07,08,06,16.10
2011,07,07,08,07,19.30
2011,07,07,08,08,25.70
2011,07,07,08,09,24.20
2011,07,07,08,10,25.70
2011,07,07,08,11,24.20
2011,07,07,08,12,24.20
2011,07,07,08,13,17.70
2011,07,07,08,14,20.90
2011,07,07,08,15,20.90
2011,07,07,08,16,19.30
2011,07,07,08,17,22.50
2011,07,07,08,18,19.30
2011,07,07,08,19,22.50
2011,07,07,08,20,25.70
2011,07,07,08,21,27.40
2011,07,07,08,22,17.70
2011,07,07,08,23,19.30
2011,07,07,08,24,32.20
2011,07,07,08,25,19.30
2011,07,07,08,26,25.70
2011,07,07,08,27,24.20
2011,07,07,08,28,24.20
2011,07,07,08,29,25.70
2011,07,07,08,30,27.40
2011,07,07,08,31,22.50
2011,07,07,08,32,20.90
2011,07,07,08,33,20.90
2011,07,07,08,34,24.20
2011,07,07,08,35,24.20
2011,07,07,08,36,22.50
2011,07,07,08,37,22.50
2011,07,07,08,38,22.50
2011,07,07,08,39,17.70
2011,07,07,08,40,22.50
2011,07,07,08,41,30.60
2011,07,07,08,42,25.70
2011,07,07,08,43,25.70
2011,07,07,08,44,20.90
2011,07,07,08,45,27.40
2011,07,07,08,46,22.50
2011,07,07,08,47,22.50
2011,07,07,08,48,25.70
2011,07,07,08,49,27.40
2011,07,07,08,50,27.40
2011,07,07,08,51,16.10
2011,07,07,08,52,24.20
2011,07,07,08,53,22.50
2011,07,07,08,54,20.90
2011,07,07,08,55,17.70
2011,07,07,08,56,25.70
2011,07,07,08,57,17.70
2011,07,07,08,58,24.20
2011,07,07,08,59,19.30
2011,07,07,09,00,16.10
2011,07,07,09,01,20.90
2011,07,07,09,02,25.70
2011,07,07,09,03,22.50
2011,07,07,09,04,22.50
2011,07,07,09,05,24.20
2011,07,07,09,06,22.50
2011,07,07,09,07,22.50
2011,07,07,09,08,17.70
2011,07,07,09,09,27.40
2011,07,07,09,10,22.50
2011,07,07,09,11,25.70
2011,07,07,09,12,16.10
2011,07,07,09,13,17.70
2011,07,07,09,14,17.70
2011,07,07,09,15,25.70
2011,07,07,09,16,20.90
2011,07,07,09,17,14.50
2011,07,07,09,18,24.20
2011,07,07,09,19,20.90
2011,07,07,09,20,20.90
2011,07,07,09,21,19.30
2011,07,07,09,22,24.20
2011,07,07,09,23,19.30
2011,07,07,09,24,22.50
2011,07,07,09,25,24.20
2011,07,07,09,26,19.30
2011,07,07,09,27,22.50
2011,07,07,09,28,24.20
2011,07,07,09,29,27.40
2011,07,07,09,30,27.40
2011,07,07,09,31,20.90
2011,07,07,09,32,24.20
2011,07,07,09,33,22.50
2011,07,07,09,34,16.10
2011,07,07,09,35,25.70
2011,07,07,09,36,30.60
2011,07,07,09,37,22.50
2011,07,07,09,38,24.20
2011,07,07,09,39,27.40
2011,07,07,09,40,17.70
2011,07,07,09,41,25.70
2011,07,07,09,42,27.40
2011,07,07,09,43,27.40
2011,07,07,09,44,25.70
2011,07,07,09,45,24.20
2011,07,07,09,46,30.60
2011,07,07,09,47,33.80
2011,07,07,09,48,19.30
2011,07,07,09,49,24.20
2011,07,07,09,50,27.40
2011,07,07,09,51,22.50
2011,07,07,09,52,27.40
2011,07,07,09,53,30.60
2011,07,07,09,54,29.00
2011,07,07,09,55,22.50
2011,07,07,09,56,32.20
2011,07,07,09,57,33.80
2011,07,07,09,58,30.60
2011,07,07,09,59,32.20
2011,07,07,10,00,30.60
2011,07,07,10,01,33.80
2011,07,07,10,02,30.60
2011,07,07,10,03,29.00
2011,07,07,10,04,30.60
2011,07,07,10,05,24.20
2011,07,07,10,06,25.70
2011,07,07,10,07,25.70
2011,07,07,10,08,32.20
2011,07,07,10,09,37.00
2011,07,07,10,10,25.70
2011,07,07,10,11,24.20
2011,07,07,10,12,32.20
2011,07,07,10,13,30.60
2011,07,07,10,14,25.70
2011,07,07,10,15,24.20
2011,07,07,10,16,29.00
2011,07,07,10,17,27.40
2011,07,07,10,18,33.80
2011,07,07,10,19,19.30
2011,07,07,10,20,25.70
2011,07,07,10,21,35.40
2011,07,07,10,22,27.40
2011,07,07,10,23,25.70
2011,07,07,10,24,30.60
2011,07,07,10,25,43.50
2011,07,07,10,26,29.00
2011,07,07,10,27,22.50
2011,07,07,10,28,29.00
2011,07,07,10,29,27.40
2011,07,07,10,30,25.70
2011,07,07,10,31,30.60
2011,07,07,10,32,33.80
2011,07,07,10,33,22.50
2011,07,07,10,34,27.40
2011,07,07,10,35,20.90
2011,07,07,10,36,20.90
2011,07,07,10,37,22.50
2011,07,07,10,38,20.90
2011,07,07,10,39,27.40
2011,07,07,10,40,14.50
2011,07,07,10,41,25.70
2011,07,07,10,42,25.70
2011,07,07,10,43,25.70
2011,07,07,10,44,22.50
2011,07,07,10,45,25.70
2011,07,07,10,46,27.40
2011,07,07,10,47,27.40
2011,07,07,10,48,25.70
2011,07,07,10,49,25.70
2011,07,07,10,50,35.40
2011,07,07,10,51,25.70
2011,07,07,10,52,25.70
2011,07,07,10,53,20.90
2011,07,07,10,54,17.70
2011,07,07,10,55,24.20
2011,07,07,10,56,20.90
2011,07,07,10,57,19.30
2011,07,07,10,58,22.50
2011,07,07,10,59,38.60
2011,07,07,11,00,33.80
2011,07,07,11,01,33.80
2011,07,07,11,02,32.20
2011,07,07,11,03,30.60
2011,07,07,11,04,29.00
2011,07,07,11,05,32.20
2011,07,07,11,06,29.00
2011,07,07,11,07,22.50
2011,07,07,11,08,22.50
2011,07,07,11,09,20.90
2011,07,07,11,10,24.20
2011,07,07,11,11,29.00
2011,07,07,11,12,29.00
2011,07,07,11,13,27.40
2011,07,07,11,14,30.60
2011,07,07,11,15,19.30
2011,07,07,11,16,19.30
2011,07,07,11,17,30.60
2011,07,07,11,18,29.00
2011,07,07,11,19,35.40
2011,07,07,11,20,32.20
2011,07,07,11,21,29.00
2011,07,07,11,22,30.60
2011,07,07,11,23,17.70
2011,07,07,11,24,27.40
2011,07,07,11,25,24.20
2011,07,07,11,26,25.70
2011,07,07,11,27,22.50
2011,07,07,11,28,27.40
2011,07,07,11,29,25.70
2011,07,07,11,30,20.90
2011,07,07,11,31,25.70
2011,07,07,11,32,27.40
2011,07,07,11,33,29.00
2011,07,07,11,34,27.40
2011,07,07,11,35,29.00
2011,07,07,11,36,32.20
2011,07,07,11,37,40.20
2011,07,07,11,38,32.20
2011,07,07,11,39,41.80
2011,07,07,11,40,33.80
2011,07,07,11,41,29.00
2011,07,07,11,42,25.70
2011,07,07,11,43,37.00
2011,07,07,11,44,25.70
2011,07,07,11,45,29.00
2011,07,07,11,46,32.20
2011,07,07,11,47,38.60
2011,07,07,11,48,29.00
2011,07,07,11,49,27.40
2011,07,07,11,50,35.40
2011,07,07,11,51,33.80
2011,07,07,11,52,35.40
2011,07,07,11,53,30.60
2011,07,07,11,54,32.20
2011,07,07,11,55,35.40
2011,07,07,11,56,30.60
2011,07,07,11,57,30.60
2011,07,07,11,58,33.80
2011,07,07,11,59,37.00
2011,07,07,12,00,33.80
2011,07,07,12,01,27.40
2011,07,07,12,02,38.60
2011,07,07,12,03,32.20
2011,07,07,12,04,27.40
2011,07,07,12,05,37.00
2011,07,07,12,06,35.40
2011,07,07,12,07,30.60
2011,07,07,12,08,35.40
2011,07,07,12,09,29.00
2011,07,07,12,10,24.20
2011,07,07,12,11,37.00
2011,07,07,12,12,33.80
2011,07,07,12,13,35.40
2011,07,07,12,14,20.90
2011,07,07,12,15,17.70
2011,07,07,12,16,29.00
2011,07,07,12,17,37.00
2011,07,07,12,18,38.60
2011,07,07,12,19,33.80
2011,07,07,12,20,35.40
2011,07,07,12,21,27.40
2011,07,07,12,22,33.80
2011,07,07,12,23,20.90
2011,07,07,12,24,24.20
2011,07,07,12,25,25.70
2011,07,07,12,26,24.20
2011,07,07,12,27,30.60
2011,07,07,12,28,32.20
2011,07,07,12,29,33.80
2011,07,07,12,30,29.00
2011,07,07,12,31,25.70
2011,07,07,12,32,20.90
2011,07,07,12,33,20.90
2011,07,07,12,34,29.00
2011,07,07,12,35,33.80
2011,07,07,12,36,27.40
2011,07,07,12,37,14.50
2011,07,07,12,38,32.20
2011,07,07,12,39,30.60
2011,07,07,12,40,37.00
2011,07,07,12,41,38.60
2011,07,07,12,42,29.00
2011,07,07,12,43,30.60
2011,07,07,12,44,27.40
2011,07,07,12,45,37.00
2011,07,07,12,46,32.20
2011,07,07,12,47,33.80
2011,07,07,12,48,30.60
2011,07,07,12,49,32.20
2011,07,07,12,50,17.70
2011,07,07,12,51,27.40
2011,07,07,12,52,19.30
2011,07,07,12,53,20.90
2011,07,07,12,54,24.20
2011,07,07,12,55,33.80
2011,07,07,12,56,27.40
2011,07,07,12,57,27.40
2011,07,07,12,58,35.40
2011,07,07,12,59,35.40
2011,07,07,13,00,25.70
2011,07,07,13,01,32.20
2011,07,07,13,02,29.00
2011,07,07,13,03,33.80
2011,07,07,13,04,30.60
2011,07,07,13,05,22.50
2011,07,07,13,06,30.60
2011,07,07,13,07,30.60
2011,07,07,13,08,38.60
2011,07,07,13,09,30.60
2011,07,07,13,10,37.00
2011,07,07,13,11,38.60
2011,07,07,13,12,37.00
2011,07,07,13,13,29.00
2011,07,07,13,14,25.70
2011,07,07,13,15,41.80
2011,07,07,13,16,32.20
2011,07,07,13,17,33.80
2011,07,07,13,18,20.90
2011,07,07,13,19,45.10
2011,07,07,13,20,37.00
2011,07,07,13,21,25.70
2011,07,07,13,22,40.20
2011,07,07,13,23,27.40
2011,07,07,13,24,38.60
2011,07,07,13,25,37.00
2011,07,07,13,26,32.20
2011,07,07,13,27,38.60
2011,07,07,13,28,37.00
2011,07,07,13,29,37.00
2011,07,07,13,30,38.60
2011,07,07,13,31,40.20
2011,07,07,13,32,33.80
2011,07,07,13,33,33.80
2011,07,07,13,34,33.80
2011,07,07,13,35,29.00
2011,07,07,13,36,37.00
2011,07,07,13,37,40.20
2011,07,07,13,38,33.80
2011,07,07,13,39,41.80
2011,07,07,13,40,38.60
2011,07,07,13,41,48.30
2011,07,07,13,42,43.50
2011,07,07,13,43,35.40
2011,07,07,13,44,33.80
2011,07,07,13,45,22.50
2011,07,07,13,46,25.70
2011,07,07,13,47,38.60
2011,07,07,13,48,33.80
2011,07,07,13,49,32.20
2011,07,07,13,50,38.60
2011,07,07,13,51,43.50
2011,07,07,13,52,41.80
2011,07,07,13,53,46.70
2011,07,07,13,54,43.50
2011,07,07,13,55,48.30
2011,07,07,13,56,49.90
2011,07,07,13,57,46.70
2011,07,07,13,58,37.00
2011,07,07,13,59,33.80
2011,07,07,14,00,43.50
2011,07,07,14,01,45.10
2011,07,07,14,02,41.80
2011,07,07,14,03,38.60
2011,07,07,14,04,46.70
2011,07,07,14,05,33.80
2011,07,07,14,06,30.60
2011,07,07,14,07,29.00
2011,07,07,14,08,33.80
2011,07,07,14,09,27.40
2011,07,07,14,10,37.00
2011,07,07,14,11,37.00
2011,07,07,14,12,33.80
2011,07,07,14,13,37.00
2011,07,07,14,14,33.80
2011,07,07,14,15,38.60
2011,07,07,14,16,30.60
2011,07,07,14,17,25.70
2011,07,07,14,18,43.50
2011,07,07,14,19,35.40
2011,07,07,14,20,35.40
2011,07,07,14,21,33.80
2011,07,07,14,22,30.60
2011,07,07,14,23,32.20
2011,07,07,14,24,37.00
2011,07,07,14,25,32.20
2011,07,07,14,26,37.00
2011,07,07,14,27,32.20
2011,07,07,14,28,38.60
2011,07,07,14,29,27.40
2011,07,07,14,30,38.60
2011,07,07,14,31,20.90
2011,07,07,14,32,41.80
2011,07,07,14,33,40.20
2011,07,07,14,34,24.20
2011,07,07,14,35,33.80
2011,07,07,14,36,27.40
2011,07,07,14,37,27.40
2011,07,07,14,38,41.80
2011,07,07,14,39,45.10
2011,07,07,14,40,38.60
2011,07,07,14,41,30.60
2011,07,07,14,42,46.70
2011,07,07,14,43,38.60
2011,07,07,14,44,33.80
2011,07,07,14,45,30.60
2011,07,07,14,46,24.20
2011,07,07,14,47,43.50
2011,07,07,14,48,35.40
2011,07,07,14,49,37.00
2011,07,07,14,50,29.00
2011,07,07,14,51,33.80
2011,07,07,14,52,38.60
2011,07,07,14,53,25.70
2011,07,07,14,54,27.40
2011,07,07,14,55,24.20
2011,07,07,14,56,35.40
2011,07,07,14,57,24.20
2011,07,07,14,58,25.70
2011,07,07,14,59,19.30
2011,07,07,15,00,25.70
2011,07,07,15,01,22.50
2011,07,07,15,02,27.40
2011,07,07,15,03,22.50
2011,07,07,15,04,25.70
2011,07,07,15,05,37.00
2011,07,07,15,06,35.40
2011,07,07,15,07,30.60
2011,07,07,15,08,30.60
2011,07,07,15,09,30.60
2011,07,07,15,10,38.60
2011,07,07,15,11,45.10
2011,07,07,15,12,27.40
2011,07,07,15,13,46.70
2011,07,07,15,14,46.70
2011,07,07,15,15,27.40
2011,07,07,15,16,24.20
2011,07,07,15,17,43.50
2011,07,07,15,18,27.40
2011,07,07,15,19,35.40
2011,07,07,15,20,24.20
2011,07,07,15,21,35.40
2011,07,07,15,22,30.60
2011,07,07,15,23,29.00
2011,07,07,15,24,24.20
2011,07,07,15,25,32.20
2011,07,07,15,26,25.70
2011,07,07,15,27,20.90
2011,07,07,15,28,24.20
2011,07,07,15,29,16.10
2011,07,07,15,30,24.20
2011,07,07,15,31,43.50
2011,07,07,15,32,40.20
2011,07,07,15,33,30.60
2011,07,07,15,34,32.20
2011,07,07,15,35,41.80
2011,07,07,15,36,49.90
2011,07,07,15,37,32.20
2011,07,07,15,38,37.00
2011,07,07,15,39,29.00
2011,07,07,15,40,27.40
2011,07,07,15,41,29.00
2011,07,07,15,42,33.80
2011,07,07,15,43,35.40
2011,07,07,15,44,37.00
2011,07,07,15,45,56.30
2011,07,07,15,46,48.30
2011,07,07,15,47,40.20
2011,07,07,15,48,48.30
2011,07,07,15,49,45.10
2011,07,07,15,50,48.30
2011,07,07,15,51,53.10
2011,07,07,15,52,43.50
2011,07,07,15,53,48.30
2011,07,07,15,54,38.60
2011,07,07,15,55,57.90
2011,07,07,15,56,43.50
2011,07,07,15,57,57.90
2011,07,07,15,58,37.00
2011,07,07,15,59,37.00
2011,07,07,16,00,51.50
2011,07,07,16,01,53.10
2011,07,07,16,02,43.50
2011,07,07,16,03,33.80
2011,07,07,16,04,40.20
2011,07,07,16,05,37.00
2011,07,07,16,06,40.20
2011,07,07,16,07,48.30
2011,07,07,16,08,64.40
2011,07,07,16,09,45.10
2011,07,07,16,10,48.30
2011,07,07,16,11,53.10
2011,07,07,16,12,61.20
2011,07,07,16,13,46.70
2011,07,07,16,14,53.10
2011,07,07,16,15,40.20
2011,07,07,16,16,51.50
2011,07,07,16,17,53.10
2011,07,07,16,18,45.10
2011,07,07,16,19,38.60
2011,07,07,16,20,37.00
2011,07,07,16,21,53.10
2011,07,07,16,22,57.90
2011,07,07,16,23,41.80
2011,07,07,16,24,38.60
2011,07,07,16,25,38.60
2011,07,07,16,26,40.20
2011,07,07,16,27,35.40
2011,07,07,16,28,37.00
2011,07,07,16,29,33.80
2011,07,07,16,30,48.30
2011,07,07,16,31,45.10
2011,07,07,16,32,37.00
2011,07,07,16,33,45.10
2011,07,07,16,34,40.20
2011,07,07,16,35,54.70
2011,07,07,16,36,38.60
2011,07,07,16,37,51.50
2011,07,07,16,38,46.70
2011,07,07,16,39,46.70
2011,07,07,16,40,48.30
2011,07,07,16,41,46.70
2011,07,07,16,42,40.20
2011,07,07,16,43,43.50
2011,07,07,16,44,41.80
2011,07,07,16,45,40.20
2011,07,07,16,46,37.00
2011,07,07,16,47,29.00
2011,07,07,16,48,46.70
2011,07,07,16,49,43.50
2011,07,07,16,50,45.10
2011,07,07,16,51,53.10
2011,07,07,16,52,43.50
2011,07,07,16,53,33.80
2011,07,07,16,54,33.80
2011,07,07,16,55,37.00
2011,07,07,16,56,38.60
2011,07,07,16,57,33.80
2011,07,07,16,58,41.80
2011,07,07,16,59,38.60
2011,07,07,17,00,37.00
2011,07,07,17,01,38.60
2011,07,07,17,02,33.80
2011,07,07,17,03,29.00
2011,07,07,17,04,35.40
2011,07,07,17,05,37.00
2011,07,07,17,06,27.40
2011,07,07,17,07,33.80
2011,07,07,17,08,35.40
2011,07,07,17,09,38.60
2011,07,07,17,10,37.00
2011,07,07,17,11,37.00
2011,07,07,17,12,33.80
2011,07,07,17,13,29.00
2011,07,07,17,14,29.00
2011,07,07,17,15,40.20
2011,07,07,17,16,27.40
2011,07,07,17,17,51.50
2011,07,07,17,18,38.60
2011,07,07,17,19,35.40
2011,07,07,17,20,35.40
2011,07,07,17,21,27.40
2011,07,07,17,22,24.20
2011,07,07,17,23,37.00